This demonstration page uses our WeatherBlox Daily Observations layout. Learn more.

39.29038, -76.61219

Hourly Observations for October 25, 2018

Temp ( °F °C ) Dew Point ( °F °C ) Humidity (%) Winds ( mph kmh ) Pressure ( in mb ) Visibility ( mi km ) Precip ( " mm )
12:54 am 00:54 undefined 45 7.2 28 -2.2 52 52 undefined N/A 30.26 1025 N/A 0 0
1:54 am 01:54 undefined 45 7.2 28 -2.2 52 52 undefined N/A 30.25 1024 N/A 0 0
2:54 am 02:54 undefined 42 5.6 30 -1.1 62 62 undefined N/A 30.23 1024 N/A 0 0
3:54 am 03:54 undefined 42 5.6 29 -1.7 60 60 undefined N/A 30.23 1024 N/A 0 0
4:54 am 04:54 undefined 41 5 30 -1.1 65 65 undefined N/A 30.23 1024 N/A 0 0
5:54 am 05:54 undefined 41 5 29 -1.7 62 62 undefined N/A 30.23 1024 N/A 0 0
6:54 am 06:54 undefined 40 4.4 29 -1.7 65 65 undefined N/A 30.23 1024 N/A 0 0
7:54 am 07:54 undefined 40 4.4 30 -1.1 68 68 undefined N/A 30.24 1024 N/A 0 0
8:54 am 08:54 undefined 43 6.1 30 -1.1 60 60 undefined N/A 30.25 1025 N/A 0 0
9:54 am 09:54 undefined 46 7.8 30 -1.1 54 54 undefined N/A 30.23 1024 N/A 0 0
10:54 am 10:54 undefined 49 9.4 29 -1.7 46 46 undefined N/A 30.22 1023 N/A 0 0
11:54 am 11:54 undefined 51 10.6 30 -1.1 44 44 undefined N/A 30.21 1023 N/A 0 0
12:54 pm 12:54 undefined 52 11.1 29 -1.7 41 41 undefined N/A 30.17 1022 N/A 0 0
1:54 pm 13:54 undefined 55 12.8 30 -1.1 38 38 undefined N/A 30.14 1021 N/A 0 0
2:54 pm 14:54 undefined 55 12.8 30 -1.1 38 38 undefined N/A 30.12 1020 N/A 0 0
3:54 pm 15:54 undefined 55 12.8 30 -1.1 38 38 undefined N/A 30.12 1020 N/A 0 0
4:54 pm 16:54 undefined 54 12.2 30 -1.1 40 40 undefined N/A 30.11 1020 N/A 0 0
5:54 pm 17:54 undefined 53 11.7 30 -1.1 41 41 undefined N/A 30.11 1020 N/A 0 0
6:54 pm 18:54 undefined 53 11.7 32 0 45 45 undefined N/A 30.11 1020 N/A 0 0
7:54 pm 19:54 undefined 52 11.1 33 0.6 49 49 undefined N/A 30.11 1020 N/A 0 0
8:54 pm 20:54 undefined 51 10.6 34 1.1 52 52 undefined N/A 30.11 1020 N/A 0 0
9:54 pm 21:54 undefined 51 10.6 34 1.1 52 52 undefined N/A 30.11 1020 N/A 0 0
10:54 pm 22:54 undefined 51 10.6 35 1.7 54 54 undefined N/A 30.11 1020 N/A 0 0
11:54 pm 23:54 undefined 50 10 36 2.2 59 59 undefined N/A 30.12 1020 N/A 0 0

Powered by AerisWeather